User: anonymous   Login
Location: Unspecified
(0.0000°N, 0.0000°E)
Time: 18:08:04
(UTC+00:00)
Language:

NAVSTAR 78 (USA 293) - Orbit

View from above orbital plane
View from above orbital plane
View from above satellite
View from above satellite

Ground track
Ground track

The orbit is defined by the following mean orbital elements,

1 44506U          26145.46236689 +.00000000 +00000-0 +00000-0 0 00004
2 44506  55.6478 332.0448 0060845 197.3305 341.1961  2.00569601    05
Epoch (UTC): 25 May 2026 11:05:48
Eccentricity: 0.0060845
inclination: 55.6478°
perigee height: 20020 km
apogee height: 20343 km
right ascension of ascending node: 332.0448°
argument of perigee: 197.3305°
revolutions per day: 2.00569601
mean anomaly at epoch: 341.1961°

The dashed part of the orbit path shows where the satellite is in the earth's shadow,  

DLR